GW6265 Weather Reports


Display with metric or nautical units.
time (UTC)temp
F
wind
direction
speed
MPH
gust
MPH
rain 1hr
in
rain 24hr
in
rain mn
in
humidity
%
barometer
mb
20260503233944 51 74 0.0 4.0 0.00 0.03 0.03 71 1030.4
20260503233440 51 267 3.0 6.0 0.00 0.03 0.03 71 1030.3
20260503232936 51 258 5.0 5.0 0.00 0.03 0.03 71 1030.3
20260503232433 51 165 3.0 9.0 0.00 0.03 0.03 71 1030.4
20260503231931 51 42 2.0 4.0 0.00 0.03 0.03 71 1030.7
20260503231429 51 31 0.0 11.0 0.00 0.03 0.03 72 1030.6
20260503230925 51 10 0.0 10.0 0.00 0.03 0.03 73 1030.7
20260503230421 51 278 2.0 5.0 0.00 0.03 0.03 73 1030.5
20260503225919 51 318 2.0 11.0 0.00 0.03 0.03 73 1030.6
20260503225415 51 293 7.0 11.0 0.00 0.03 0.03 73 1030.7
20260503224911 51 332 7.0 18.0 0.02 0.03 0.03 74 1030.8
20260503224408 51 335 2.0 6.0 0.02 0.03 0.03 74 1030.9
20260503223906 51 305 4.0 14.0 0.00 0.02 0.02 72 1030.8
20260503223404 51 296 3.0 6.0 0.00 0.02 0.02 73 1031.0
20260503222859 51 269 6.0 11.0 0.00 0.02 0.02 73 1030.8
20260503222358 51 276 9.0 13.0 0.00 0.02 0.02 73 1030.9
20260503221856 51 305 2.0 8.0 0.00 0.02 0.02 74 1030.9
20260503221354 51 321 2.0 17.0 0.00 0.02 0.02 75 1031.0
20260503220850 51 315 4.0 9.0 0.00 0.02 0.02 76 1031.0
20260503220347 51 294 2.0 7.0 0.00 0.02 0.02 76 1031.1
20260503215844 51 283 4.0 9.0 0.00 0.02 0.02 75 1031.2
20260503215341 50 307 2.0 6.0 0.00 0.02 0.02 75 1031.1
20260503214838 50 309 6.0 13.0 0.00 0.02 0.02 74 1031.2
20260503214336 50 325 3.0 8.0 0.00 0.02 0.02 75 1031.0
20260503213833 50 271 6.0 10.0 0.02 0.02 0.02 75 1031.1
20260503213330 50 332 2.0 10.0 0.02 0.02 0.02 75 1031.1
20260503212827 51 3 1.0 12.0 0.00 0.02 0.02 74 1031.1
20260503212325 51 277 4.0 19.0 0.02 0.02 0.02 72 1031.3
20260503211822 51 331 6.0 11.0 0.02 0.02 0.02 71 1031.3
20260503211319 51 329 3.0 17.0 0.00 0.02 0.02 71 1031.2
20260503210819 51 292 7.0 16.0 0.02 0.02 0.02 70 1031.2
20260503210317 52 359 3.0 19.0 0.05 0.02 0.02 70 1031.2
20260503205811 53 274 5.0 11.0 0.02 0.01 0.01 67 1031.1
20260503205308 54 335 4.0 15.0 0.02 0.01 0.01 63 1031.0
20260503204805 55 281 8.0 16.0 0.02 0.01 0.01 60 1031.0
20260503204303 55 305 7.0 15.0 0.00 0.00 0.00 56 1030.7
20260503203800 56 350 3.0 7.0 0.00 0.00 0.00 56 1030.6
20260503203257 56 333 5.0 12.0 0.00 0.00 0.00 52 1030.6
20260503202754 57 281 10.0 18.0 0.00 0.00 0.00 49 1030.5
20260503202252 57 325 6.0 8.0 0.00 0.00 0.00 47 1030.4
20260503201749 56 319 4.0 16.0 0.00 0.00 0.00 47 1030.6
20260503201247 56 325 7.0 15.0 0.00 0.00 0.00 47 1030.4
20260503200743 56 310 3.0 3.0 0.00 0.00 0.00 47 1030.3
20260503200239 56 282 4.0 8.0 0.02 0.00 0.00 47 1030.3
20260503195736 56 344 2.0 9.0 0.02 0.00 0.00 47 1030.6
20260503195233 56 349 3.0 8.0 0.00 0.00 0.00 48 1030.7
20260503194731 56 307 7.0 7.0 0.00 0.00 0.00 46 1030.8
20260503194226 56 347 3.0 6.0 0.00 0.00 0.00 45 1030.7
20260503193723 56 342 3.0 6.0 0.00 0.00 0.00 44 1030.5
20260503193219 57 355 2.0 5.0 0.00 0.00 0.00 44 1030.6
20260503192715 57 35 0.0 5.0 0.00 0.00 0.00 45 1030.6
20260503192210 57 322 3.0 9.0 0.00 0.00 0.00 42 1030.6
20260503191707 58 107 4.0 7.0 0.00 0.00 0.00 43 1030.9
20260503191204 57 6 4.0 7.0 0.00 0.00 0.00 43 1031.2
20260503190701 55 353 2.0 5.0 0.00 0.00 0.00 44 1031.4
20260503190158 55 310 3.0 5.0 0.00 0.00 0.00 42 1031.4
20260503185654 56 24 3.0 5.0 0.00 0.00 0.00 41 1031.4
20260503185149 56 349 1.0 7.0 0.00 0.00 0.00 41 1031.7
20260503184645 56 266 3.0 10.0 0.00 0.00 0.00 39 1031.7
20260503184142 57 210 7.0 9.0 0.00 0.00 0.00 40 1031.6
20260503183638 57 109 4.0 10.0 0.00 0.00 0.00 38 1031.6
20260503183136 57 214 2.0 11.0 0.00 0.00 0.00 36 1031.9
20260503182634 58 277 4.0 7.0 0.00 0.00 0.00 37 1031.9
20260503182132 58 237 3.0 12.0 0.00 0.00 0.00 34 1031.9
20260503181628 58 334 4.0 6.0 0.00 0.00 0.00 37 1031.8
20260503181125 57 157 4.0 8.0 0.00 0.00 0.00 37 1032.0
20260503180622 57 284 6.0 9.0 0.00 0.00 0.00 38 1032.1
20260503180120 58 186 2.0 8.0 0.00 0.00 0.00 36 1032.2
20260503175617 58 247 5.0 6.0 0.00 0.00 0.00 36 1032.2
20260503175114 58 256 1.0 8.0 0.00 0.00 0.00 36 1032.4
20260503174610 59 274 2.0 8.0 0.00 0.00 0.00 37 1032.4
20260503174107 58 266 1.0 8.0 0.00 0.00 0.00 38 1032.7
20260503173602 57 290 3.0 7.0 0.00 0.00 0.00 39 1032.8
20260503173059 57 229 3.0 7.0 0.00 0.00 0.00 37 1032.8
20260503172556 56 138 2.0 7.0 0.00 0.00 0.00 36 1032.9
20260503172053 56 348 1.0 5.0 0.00 0.00 0.00 38 1033.0
20260503171549 56 279 6.0 9.0 0.00 0.00 0.00 40 1033.1
20260503171047 56 275 6.0 11.0 0.00 0.00 0.00 39 1033.2
20260503170543 57 201 5.0 9.0 0.00 0.00 0.00 40 1033.3
20260503150936 51 187 2.0 4.0 0.00 0.00 0.00 41 1034.7
20260503150432 51 280 4.0 6.0 0.00 0.00 0.00 42 1034.8
20260503131325 46 308 2.0 4.0 0.00 0.00 0.00 51 1035.6
20260503130823 46 260 2.0 5.0 0.00 0.00 0.00 52 1035.6
20260503130321 46 10 2.0 6.0 0.00 0.00 0.00 51 1035.6
20260503110714 31 352 1.0 2.0 0.00 0.00 0.00 87 1035.6
20260503110211 30 40 1.0 1.0 0.00 0.00 0.00 87 1035.7
20260503100137 29 303 0.0 0.0 0.00 0.00 0.00 83 1035.7
20260503081532 28 352 0.0 2.0 0.00 0.00 0.00 80 1036.3
20260503081030 28 31 0.0 2.0 0.00 0.00 0.00 81 1036.2
20260503080526 28 34 2.0 2.0 0.00 0.00 0.00 82 1036.2
20260503072459 28 32 0.0 0.0 0.00 0.00 0.00 77 1036.3
20260503071956 28 338 0.0 1.0 0.00 0.00 0.00 78 1036.5
20260503071453 28 335 0.0 0.0 0.00 0.00 0.00 78 1036.2
20260503070949 28 24 1.0 1.0 0.00 0.00 0.00 78 1036.3
20260503070447 28 34 0.0 0.0 0.00 0.00 0.00 78 1036.2
20260503054906 30 299 0.0 3.0 0.00 0.00 0.00 73 1036.9
20260503054402 30 11 0.0 2.0 0.00 0.00 0.00 73 1036.8
20260503053900 30 310 0.0 0.0 0.00 0.00 0.00 73 1036.7
20260503053358 31 288 2.0 2.0 0.00 0.00 0.00 73 1036.9
20260503052853 31 53 0.0 0.0 0.00 0.00 0.00 72 1036.9
20260503052351 31 31 0.0 2.0 0.00 0.00 0.00 70 1037.0
20260503051847 31 311 2.0 2.0 0.00 0.00 0.00 70 1037.1
20260503051343 31 30 0.0 1.0 0.00 0.00 0.00 68 1036.8
20260503050840 31 340 2.0 2.0 0.00 0.00 0.00 68 1037.0
20260503050337 32 15 2.0 2.0 0.00 0.00 0.00 68 1037.0
20260503045834 32 351 2.0 2.0 0.00 0.00 0.00 66 1036.8
20260503045332 32 358 2.0 2.0 0.00 0.00 0.00 65 1037.0
20260503044828 33 1 2.0 2.0 0.00 0.00 0.00 65 1037.0
20260503044325 33 355 2.0 2.0 0.00 0.00 0.00 64 1036.9
20260503043822 33 357 2.0 2.0 0.00 0.00 0.00 62 1037.3
20260503043319 34 359 2.0 2.0 0.00 0.00 0.00 60 1037.1
20260503042815 34 4 2.0 3.0 0.00 0.00 0.00 59 1037.1
20260503042312 35 4 3.0 4.0 0.00 0.00 0.00 58 1037.1
20260503041808 35 12 3.0 3.0 0.00 0.00 0.00 57 1037.2
20260503041306 36 5 3.0 3.0 0.00 0.00 0.00 55 1037.2
20260503040803 36 354 3.0 3.0 0.00 0.00 0.00 54 1037.2
20260503040301 37 348 3.0 4.0 0.00 0.00 0.00 54 1037.1
20260503035757 37 356 3.0 4.0 0.00 0.01 0.01 53 1037.3
20260503035255 37 348 2.0 4.0 0.00 0.01 0.01 54 1037.2
20260503034752 37 342 3.0 4.0 0.00 0.01 0.01 55 1037.2
20260503034249 37 345 3.0 3.0 0.00 0.01 0.01 55 1037.1
20260503033746 37 334 3.0 4.0 0.00 0.01 0.01 54 1037.1
20260503033244 38 341 3.0 4.0 0.00 0.01 0.01 53 1037.3
20260503032742 38 12 2.0 3.0 0.00 0.01 0.01 53 1037.1
20260503032240 38 357 2.0 3.0 0.00 0.01 0.01 53 1037.1
20260503031737 38 352 2.0 4.0 0.00 0.01 0.01 53 1037.1
20260503031235 38 350 3.0 5.0 0.00 0.01 0.01 53 1037.2
20260503030731 39 339 3.0 4.0 0.00 0.01 0.01 52 1037.1
20260503030227 38 1 2.0 5.0 0.00 0.01 0.01 52 1037.2
20260503025724 38 345 3.0 4.0 0.00 0.01 0.01 52 1037.1
20260503025222 38 333 4.0 4.0 0.00 0.01 0.01 53 1037.2
20260503024718 38 328 3.0 4.0 0.00 0.01 0.01 54 1037.4
20260503024216 38 353 2.0 4.0 0.00 0.01 0.01 55 1037.3
20260503023713 37 334 4.0 4.0 0.00 0.01 0.01 56 1037.3
20260503023209 37 329 4.0 4.0 0.00 0.01 0.01 57 1037.3
20260503022706 37 357 3.0 4.0 0.00 0.01 0.01 59 1037.4
20260503022205 37 350 3.0 4.0 0.00 0.01 0.01 61 1037.3
20260503021702 37 333 3.0 4.0 0.00 0.01 0.01 61 1037.3
20260503021159 37 355 3.0 4.0 0.00 0.01 0.01 64 1037.4
20260503020656 37 0 3.0 3.0 0.00 0.01 0.01 64 1037.3
20260503020153 37 352 2.0 3.0 0.00 0.01 0.01 64 1037.3
20260503015650 37 356 3.0 3.0 0.00 0.01 0.01 66 1037.3
20260503015147 37 345 2.0 3.0 0.00 0.01 0.01 63 1037.3
20260503014643 38 343 2.0 3.0 0.00 0.01 0.01 64 1037.4
20260503014141 38 347 2.0 2.0 0.00 0.01 0.01 64 1037.1
20260503013638 38 340 2.0 2.0 0.00 0.01 0.01 64 1037.4
20260503013136 39 345 1.0 2.0 0.00 0.01 0.01 61 1037.2
20260503012633 39 0 0.0 1.0 0.00 0.01 0.01 64 1037.3
20260503012129 39 36 0.0 0.0 0.00 0.01 0.01 62 1037.2
20260503011626 40 36 0.0 1.0 0.00 0.01 0.01 61 1037.3
20260503011123 40 240 0.0 1.0 0.00 0.01 0.01 60 1037.1
20260503010619 40 299 0.0 0.0 0.00 0.01 0.01 62 1037.0
20260503010117 41 251 0.0 1.0 0.00 0.01 0.01 62 1037.1
20260503005614 41 269 0.0 1.0 0.00 0.01 0.01 59 1037.0
20260503005111 41 232 0.0 1.0 0.00 0.01 0.01 56 1037.0
20260503004607 41 234 0.0 0.0 0.00 0.01 0.01 53 1037.0
20260503004106 42 230 0.0 0.0 0.00 0.01 0.01 52 1037.1
20260503003602 42 282 1.0 1.0 0.00 0.01 0.01 51 1037.1
20260503003059 42 340 0.0 2.0 0.00 0.01 0.01 50 1037.0
20260503002556 43 302 1.0 3.0 0.00 0.01 0.01 49 1037.1
20260503002053 43 340 1.0 4.0 0.00 0.01 0.01 48 1037.1
20260503001549 43 347 2.0 4.0 0.00 0.01 0.01 47 1037.0
20260503001047 44 341 2.0 5.0 0.00 0.01 0.01 47 1036.9
20260503000544 44 326 3.0 6.0 0.00 0.01 0.01 47 1036.9
20260503000041 44 292 4.0 6.0 0.00 0.01 0.01 47 1037.1
20260502235537 44 337 3.0 4.0 0.00 0.01 0.01 48 1036.9
20260502235035 44 341 4.0 4.0 0.00 0.01 0.01 47 1037.1
20260502234531 44 13 2.0 5.0 0.00 0.01 0.01 47 1036.9
20260502234029 44 8 3.0 6.0 0.00 0.01 0.01 47 1037.2